• In Romania
  • List of Countries
  • For 7 days
  • Water Temperature
  • Satellite Maps
  • Weather Map
  • Weather Widgets
  • user-avatar
    Login

    Hourly Weather Canberra

    Today, 20 January, Saturday

    Time Temperature Precipitation Wind Pressure Humidity
    00:00 +23°C° 0 mm 1 mps 709 mmHg 31%
    01:00 +22°C° 0 mm 1 mps 709 mmHg 31%
    02:00 +22°C° 0 mm 1 mps 709 mmHg 30%
    03:00 +22°C° 0 mm 1 mps 709 mmHg 30%
    04:00 +21°C° 0 mm 1 mps 709 mmHg 30%
    05:00 +23°C° 0 mm 1 mps 709 mmHg 29%
    06:00 +25°C° 0 mm 1 mps 709 mmHg 28%
    07:00 +26°C° 0 mm 1 mps 710 mmHg 27%
    08:00 +30°C° 0 mm 1 mps 710 mmHg 22%
    09:00 +34°C° 0 mm 2 mps 710 mmHg 17%
    10:00 +37°C° 0 mm 2 mps 711 mmHg 13%
    11:00 +38°C° 0 mm 2 mps 710 mmHg 11%
    12:00 +39°C° 0 mm 3 mps 710 mmHg 10%
    13:00 +40°C° 0 mm 3 mps 710 mmHg 9%
    14:00 +40°C° 0 mm 3 mps 709 mmHg 9%
    15:00 +41°C° 0 mm 4 mps 709 mmHg 10%
    16:00 +38°C° 0 mm 4 mps 709 mmHg 11%
    17:00 +36°C° 0 mm 4 mps 709 mmHg 15%
    18:00 +33°C° 0 mm 3 mps 709 mmHg 18%
    19:00 +30°C° 0 mm 2 mps 709 mmHg 22%
    20:00 +28°C° 0 mm 2 mps 709 mmHg 26%
    21:00 +26°C° 0 mm 2 mps 709 mmHg 29%
    22:00 +24°C° 0 mm 1 mps 709 mmHg 32%
    23:00 +23°C° 0 mm 1 mps 708 mmHg 33%

    Tomorrow, 21 January, Sunday

    Time Temperature Precipitation Wind Pressure Humidity
    00:00 +22°C° 0 mm 1 mps 708 mmHg 34%
    01:00 +22°C° 0 mm 1 mps 708 mmHg 35%
    02:00 +21°C° 0 mm 1 mps 707 mmHg 35%
    03:00 +21°C° 0 mm 1 mps 707 mmHg 35%
    04:00 +20°C° 0 mm 1 mps 707 mmHg 34%
    05:00 +22°C° 0 mm 1 mps 707 mmHg 32%
    06:00 +24°C° 0 mm 1 mps 708 mmHg 30%
    07:00 +25°C° 0 mm 1 mps 708 mmHg 28%
    08:00 +29°C° 0 mm 2 mps 709 mmHg 23%
    09:00 +32°C° 0 mm 2 mps 709 mmHg 17%
    10:00 +36°C° 0 mm 3 mps 709 mmHg 12%
    11:00 +37°C° 0 mm 3 mps 708 mmHg 11%
    12:00 +38°C° 0 mm 3 mps 708 mmHg 10%
    13:00 +39°C° 0 mm 3 mps 708 mmHg 9%
    14:00 +39°C° 0 mm 3 mps 707 mmHg 9%
    15:00 +39°C° 0 mm 3 mps 706 mmHg 9%
    16:00 +39°C° 0 mm 3 mps 706 mmHg 9%
    17:00 +37°C° 0 mm 2 mps 706 mmHg 12%
    18:00 +33°C° 0 mm 1 mps 705 mmHg 16%
    19:00 +31°C° 0 mm 1 mps 705 mmHg 19%
    20:00 +29°C° 0 mm 1 mps 705 mmHg 22%
    21:00 +27°C° 0 mm 1 mps 705 mmHg 25%
    22:00 +26°C° 0 mm 1 mps 705 mmHg 28%
    23:00 +25°C° 0 mm 2 mps 705 mmHg 32%

    Day after tomorrow, 22 January, Monday

    Time Temperature Precipitation Wind Pressure Humidity
    00:00 +25°C° 0 mm 2 mps 705 mmHg 36%
    01:00 +24°C° 0 mm 2 mps 704 mmHg 41%
    02:00 +24°C° 0 mm 2 mps 704 mmHg 40%
    03:00 +24°C° 0 mm 2 mps 704 mmHg 40%
    04:00 +23°C° 0 mm 1 mps 704 mmHg 40%
    05:00 +25°C° 0 mm 2 mps 704 mmHg 39%
    06:00 +26°C° 0 mm 2 mps 705 mmHg 37%
    07:00 +27°C° 0 mm 2 mps 705 mmHg 36%
    08:00 +29°C° 0 mm 3 mps 706 mmHg 31%
    09:00 +33°C° 0 mm 4 mps 706 mmHg 25%
    10:00 +36°C° 0 mm 5 mps 706 mmHg 20%
    11:00 +37°C° 0 mm 5 mps 706 mmHg 19%
    12:00 +39°C° 0 mm 5 mps 706 mmHg 17%
    13:00 +40°C° 0 mm 5 mps 705 mmHg 15%
    14:00 +40°C° 0 mm 5 mps 705 mmHg 15%
    15:00 +40°C° 0 mm 5 mps 705 mmHg 14%
    16:00 +40°C° 0 mm 5 mps 704 mmHg 14%
    17:00 +37°C° 0 mm 4 mps 705 mmHg 17%
    18:00 +35°C° 0 mm 3 mps 705 mmHg 20%
    19:00 +32°C° 0 mm 2 mps 705 mmHg 23%
    20:00 +30°C° 0 mm 2 mps 705 mmHg 25%
    21:00 +29°C° 0 mm 2 mps 706 mmHg 27%
    22:00 +28°C° 0 mm 2 mps 706 mmHg 30%
    23:00 +28°C° 0 mm 1 mps 706 mmHg 32%

    23 January, Tuesday

    Time Temperature Precipitation Wind Pressure Humidity
    00:00 +27°C° 0 mm 1 mps 706 mmHg 35%
    01:00 +26°C° 0 mm 1 mps 706 mmHg 37%
    02:00 +26°C° 0.1 mm 2 mps 705 mmHg 41%
    03:00 +26°C° 0.1 mm 2 mps 705 mmHg 44%
    04:00 +25°C° 0.1 mm 2 mps 705 mmHg 48%
    05:00 +26°C° 0 mm 2 mps 706 mmHg 46%
    06:00 +26°C° 0 mm 2 mps 706 mmHg 44%
    07:00 +27°C° 0 mm 2 mps 707 mmHg 43%
    08:00 +30°C° 0 mm 2 mps 707 mmHg 37%
    09:00 +33°C° 0 mm 3 mps 707 mmHg 30%
    10:00 +35°C° 0 mm 4 mps 707 mmHg 24%
    11:00 +37°C° 0 mm 4 mps 707 mmHg 22%
    12:00 +38°C° 0 mm 4 mps 707 mmHg 21%
    13:00 +40°C° 0 mm 4 mps 706 mmHg 19%
    14:00 +38°C° 0 mm 3 mps 706 mmHg 21%
    15:00 +37°C° 0 mm 3 mps 706 mmHg 22%
    16:00 +36°C° 0 mm 2 mps 705 mmHg 24%
    17:00 +35°C° 0 mm 2 mps 706 mmHg 30%
    18:00 +32°C° 0 mm 2 mps 706 mmHg 37%
    19:00 +30°C° 0 mm 2 mps 706 mmHg 43%
    20:00 +28°C° 0 mm 2 mps 706 mmHg 52%
    21:00 +26°C° 0 mm 2 mps 706 mmHg 60%
    22:00 +25°C° 0 mm 2 mps 707 mmHg 68%
    23:00 +24°C° 0 mm 2 mps 707 mmHg 75%

    24 January, Wednesday

    Time Temperature Precipitation Wind Pressure Humidity
    00:00 +21°C° 0 mm 2 mps 706 mmHg 81%
    01:00 +20°C° 0 mm 2 mps 706 mmHg 88%
    02:00 +21°C° 0 mm 1 mps 706 mmHg 89%
    03:00 +21°C° 0 mm 1 mps 706 mmHg 90%
    04:00 +20°C° 0 mm 1 mps 706 mmHg 91%
    05:00 +22°C° 0.1 mm 1 mps 706 mmHg 85%
    06:00 +23°C° 0.1 mm 1 mps 707 mmHg 79%
    07:00 +24°C° 0.1 mm 1 mps 707 mmHg 73%
    08:00 +27°C° 0 mm 1 mps 707 mmHg 59%
    09:00 +31°C° 0 mm 2 mps 708 mmHg 46%
    10:00 +35°C° 0 mm 2 mps 708 mmHg 32%
    11:00 +36°C° 0 mm 2 mps 708 mmHg 28%
    12:00 +38°C° 0 mm 2 mps 707 mmHg 25%
    13:00 +39°C° 0 mm 2 mps 707 mmHg 21%
    14:00 +38°C° 0 mm 2 mps 707 mmHg 24%
    15:00 +37°C° 0 mm 3 mps 706 mmHg 26%
    16:00 +36°C° 0 mm 3 mps 706 mmHg 28%
    17:00 +34°C° 0.1 mm 3 mps 706 mmHg 34%
    18:00 +31°C° 0.1 mm 2 mps 706 mmHg 41%
    19:00 +29°C° 0.1 mm 1 mps 706 mmHg 48%
    20:00 +27°C° 0 mm 2 mps 706 mmHg 56%
    21:00 +25°C° 0 mm 2 mps 706 mmHg 65%
    22:00 +24°C° 0 mm 2 mps 707 mmHg 73%
    23:00 +24°C° 0.3 mm 2 mps 707 mmHg 78%

    25 January, Thursday

    Time Temperature Precipitation Wind Pressure Humidity
    00:00 +23°C° 0.3 mm 2 mps 707 mmHg 83%
    01:00 +22°C° 0.3 mm 3 mps 707 mmHg 87%
    02:00 +21°C° 0.1 mm 2 mps 707 mmHg 88%
    03:00 +21°C° 0.1 mm 2 mps 706 mmHg 89%
    04:00 +22°C° 0.1 mm 1 mps 706 mmHg 90%
    05:00 +22°C° 0 mm 1 mps 706 mmHg 87%
    06:00 +23°C° 0 mm 1 mps 707 mmHg 85%
    07:00 +23°C° 0 mm 1 mps 707 mmHg 82%
    08:00 +26°C° 0 mm 1 mps 707 mmHg 68%
    09:00 +29°C° 0 mm 2 mps 707 mmHg 55%
    10:00 +32°C° 0 mm 2 mps 708 mmHg 41%
    11:00 +34°C° 0 mm 2 mps 708 mmHg 37%
    12:00 +36°C° 0 mm 2 mps 707 mmHg 34%
    13:00 +37°C° 0 mm 2 mps 707 mmHg 30%
    14:00 +37°C° 0.1 mm 2 mps 707 mmHg 31%
    15:00 +36°C° 0.1 mm 2 mps 706 mmHg 33%
    16:00 +36°C° 0.1 mm 2 mps 706 mmHg 34%
    17:00 +34°C° 0.3 mm 3 mps 706 mmHg 43%
    18:00 +30°C° 0.3 mm 3 mps 706 mmHg 53%
    19:00 +28°C° 0.3 mm 4 mps 706 mmHg 62%
    20:00 +27°C° 2 mm 3 mps 707 mmHg 69%
    21:00 +25°C° 2 mm 2 mps 707 mmHg 77%
    22:00 +23°C° 2 mm 1 mps 707 mmHg 84%
    23:00 +23°C° 0.3 mm 1 mps 707 mmHg 85%
    Show more